Regional Weather Roundup
Issued by NWS

Home | Current Version | Previous Version | Text Only | Print | Product List | Glossary On
Versions: 1 2 3 4 5 6 7 8 9 10 11 12 13 14 15 16 17 18 19 20 21 22 23 24 25 26 27 28 29 30 31 32 33 34 35 36 37 38 39 40 41 42 43 44 45 46 47 48 49 50
000
ASUS43 KLSX 210410
RWRMO

WEATHER SUMMARY FOR MISSOURI
NATIONAL WEATHER SERVICE SPRINGFIELD MO
1100 PM CDT THU JUL 20 2017

NOTE: "FAIR" INDICATES FEW OR NO CLOUDS BELOW 12,000 FEET WITH NO
       SIGNIFICANT WEATHER AND/OR OBSTRUCTIONS TO VISIBILITY.
       CURRENT SKY AND/OR WEATHER CONDITIONS ARE NOT AVAILABLE FOR
       CHILLICOTHE AND FARMINGTON.

MOZ001>031-035>038-043-044-053-054-210500-
...NORTHERN AND WESTERN MISSOURI...

CITY           SKY/WX    TMP DP  RH WIND       PRES   REMARKS
KANSAS CTY INT CLEAR     83  74  74 S10       29.95S
KANSAS C DTWN  CLEAR     88  75  65 S9G20     29.94R HX  97
LEE`S SUMMIT   CLEAR     86  76  71 S12       29.97R HX  96
ST JOSEPH      CLOUDY    84  77  79 S7        29.92F HX  94
CHILLICOTHE      N/A     85  79  82 S8        29.94S HX  98
KIRKSVILLE     CLEAR     82  77  84 SW5       29.96S HX  90

$$
MOZ066>068-077>081-088>096-101>105-210500-
...SOUTHWEST MISSOURI...

CITY           SKY/WX    TMP DP  RH WIND       PRES   REMARKS
SPRINGFIELD    CLEAR     81  72  74 S6        30.04R
JOPLIN         CLEAR     82  75  79 S8        30.01S
BRANSON        CLEAR     81  72  74 S3        30.07R

$$
MOZ032>034-039>042-045>050-055>058-069>072-210500-
...CENTRAL MISSOURI...

CITY           SKY/WX    TMP DP  RH WIND       PRES   REMARKS
COLUMBIA       CLEAR     84  72  67 SW3       29.98S
JEFFERSON CITY CLEAR     83  78  85 CALM      29.96S HX  93
ROLLA          CLEAR     79  71  76 S8        30.00S
WHITEMAN AFB   CLEAR     80  80 100 SW9       29.96S
WARRENSBURG    CLEAR     81  72  74 S6        29.96S
OSAGE BEACH    CLEAR     82  72  71 SW3       30.00S

$$
MOZ051-052-059>065-210500-
...EAST CENTRAL MISSOURI...

CITY           SKY/WX    TMP DP  RH WIND       PRES   REMARKS
ST LOUIS INTL  CLEAR     91  73  55 CALM      29.97S HX  99
SPIRIT OF STL  CLEAR     81  77  88 CALM      29.95S
ST CHARLES     CLEAR     82  77  84 MISG      29.95R HX  90

$$
MOZ072>076-082>087-097>100-106>115-210500-
...SOUTH CENTRAL AND SOUTHEAST MISSOURI...

CITY           SKY/WX    TMP DP  RH WIND       PRES   REMARKS
CAPE GIRARDEAU CLEAR     81  74  79 CALM      29.99S
FARMINGTON     CLEAR     81  75  82 CALM      30.02S
POPLAR BLUFF   CLEAR     83  79  88 S6        29.99F HX  94
WEST PLAINS    CLEAR     83  73  72 S5        30.06S

$$



USA.gov is the U.S. government's official web portal to all federal, state and local government web resources and services.